Location: Grand Mazuras
(45.9128°N, 1.7636°E)
Time: 05:34:08
(UTC+00:00)

Cosmos 1455 - Pass Details

Date: 18 April 2021
Orbit: 498 x 521 km, 82.5° (Epoch: 15 May)

Event Time Altitude Azimuth Distance (km) Brightness Sun altitude
Rises 19:13:17 0° 161° (SSE) 2,593 5.4 -5.6°
Reaches altitude 10° 19:15:36 10° 149° (SSE) 1,710 4.4 -6.0°
Maximum altitude 19:18:48 27° 90° (E) 987 3.1 -6.5°
Drops below altitude 10° 19:22:00 10° 32° (NNE) 1,715 4.8 -7.0°
Sets 19:24:20 0° 20° (NNE) 2,602 5.8 -7.4°
